[[{"header":{"parameterUnit":"m.s-1","parameterCategory":1,"la1":30.2991,"la2":30.254,"lo1":-89.0895,"lo2":-89.0444,"dy":0.0017,"dx":0.0017,"nx":28,"ny":28,"refTime":"2023-09-20T09:00:00:Z","depth":0,"parameterNumber":2,"parameterNumberName":"U-component_of_WINDS"},"data":[0,0,0,0,0,0,0,0,0,0,0,0,0,0,0,0,0,0,0,0,0,0,0,0,0,0,0,0,0,0,0,0,0,0,0,0,0,0,0,0,0,0,0,0,0,0,0,0,0,0,0,0,0,0,0,0,0,0,-3.8407,-3.8408,0,-3.8578,-3.858,-3.8582,-3.8566,-3.8564,-3.8561,-3.8558,-3.8738,-3.8746,-3.8753,0,0,0,0,0,0,0,0,0,0,0,0,0,-3.8072,-3.8078,-3.8406,-3.8409,-3.8411,-3.8577,-3.858,-3.8582,-3.8567,-3.8563,-3.856,-3.8557,-3.8736,-3.8745,-3.8753,0,0,0,0,0,0,0,0,0,0,0,0,0,-3.8227,-3.808,-3.8406,-3.8423,-3.8426,-3.8577,-3.858,-3.8583,-3.8567,-3.8563,-3.8559,-3.8556,-3.8733,-3.8744,-3.8755,-3.8901,0,0,-3.8788,-3.8792,0,0,0,0,0,0,0,0,-3.8219,-3.824,-3.8418,-3.8422,-3.8426,-3.8546,-3.8528,-3.869,-3.8568,-3.8514,-3.8558,-3.8554,-3.8678,-3.8693,-3.8734,-3.8909,-3.8917,-3.8789,-3.8795,-3.88,-3.8803,0,0,0,0,0,0,0,-3.8208,-3.8232,-3.8474,-3.8421,-3.8426,-3.8424,-3.8442,-3.8558,-3.8616,-3.8518,-3.8518,-3.8538,-3.8679,-3.8724,-3.8738,-3.892,-3.8788,-3.8798,-3.8805,-3.8809,-3.9227,-3.9231,0,0,0,0,0,0,-3.8192,-3.8223,-3.8469,-3.8479,-3.831,-3.8433,-3.8453,-3.8512,-3.8615,-3.8627,-3.8541,-3.8536,-3.8707,-3.8726,-3.8745,-3.8926,-3.88,-3.881,-3.8816,-3.9222,-3.9228,-3.9233,0,0,0,0,0,0,-3.8185,-3.8214,-3.8462,-3.8351,-3.8383,-3.8443,-3.8509,-3.8517,-3.8562,-3.8632,-3.8643,-3.8575,-3.8705,-3.8729,-3.8863,-3.8932,-3.8815,-3.8825,-3.9217,-3.9224,-3.923,-3.9287,0,0,0,0,0,0,-3.8176,-3.8212,-3.8267,-3.8353,-3.8389,-3.8576,-3.8513,-3.8524,-3.858,-3.8576,-3.8667,-3.8679,-3.8704,-3.8846,-3.8873,-3.8944,-3.8833,-3.9211,-3.922,-3.9228,-3.9279,-3.9295,-3.9308,0,0,0,0,0,-3.8164,-3.8276,-3.827,-3.8299,-3.8458,-3.858,-3.86,-3.8626,-3.8585,-3.8642,-3.8688,-3.8676,-3.8919,-3.886,-3.889,-3.8966,-3.9207,-3.9218,-3.9228,-3.9273,-3.9292,-3.9308,0,0,0,0,0,0,-3.8198,-3.8288,-3.8282,-3.8425,-3.8495,-3.8577,-3.8649,-3.8644,-3.8728,-3.8721,-3.875,-3.8771,-3.8906,-3.8949,-3.8882,-3.9114,-3.9058,-3.9075,-3.9082,-3.9101,-3.9115,-3.9103,-3.8842,0,0,0,0,0,-3.8222,-3.8312,-3.8385,-3.8505,-3.854,-3.8589,-3.8642,-3.8656,-3.873,-3.876,-3.8815,-3.8889,-3.8982,-3.9043,-3.9133,-3.9284,-3.9306,-3.9351,-3.9366,-3.9377,-3.9393,-3.9479,-3.9501,-3.9267,-3.9267,-3.9267,0,0,-3.8274,-3.8333,-3.8388,-3.8514,-3.8569,-3.8664,-3.8614,-3.8715,-3.8786,-3.8776,-3.8905,-3.8948,-3.9033,-3.9177,-3.9243,-3.9217,-3.9462,-3.939,-3.9399,-3.9408,-3.9492,-3.9515,-3.9534,-3.9274,-3.9273,-3.9271,0,0,-3.8416,-3.8468,-3.8575,-3.8632,-3.8716,-3.8748,-3.8773,-3.8857,-3.8885,-3.9015,-3.901,-3.9095,-3.9255,-3.9316,-3.9368,-3.9534,-3.9528,-3.9563,-3.964,-3.9724,-3.9743,-3.9759,-3.9822,-3.9844,-3.9577,-3.9577,-3.9577,0,-3.847,-3.861,-3.8631,-3.8734,-3.879,-3.8783,-3.8894,-3.8948,-3.9058,-3.9098,-3.9066,-3.9268,-3.9324,-3.9484,-3.9524,-3.9565,-3.9598,-3.9554,-3.9738,-3.9755,-3.9771,-3.9831,-3.9854,-3.9581,-3.9581,-3.958,-3.958,0,-3.8673,-3.877,-3.8847,-3.8952,-3.9017,-3.9123,-3.9162,-3.9226,-3.9233,-3.9269,-3.9403,-3.947,-3.9574,-3.9613,-3.9621,-3.9775,-3.9756,-3.9731,-3.9675,-3.9797,-3.9854,-3.9877,-3.9587,-3.9585,-3.9584,-3.9583,0,0,-3.8844,-3.896,-3.8988,-3.9037,-3.913,-3.9207,-3.9313,-3.9413,-3.9469,-3.9544,-3.9637,-3.9772,-3.975,-3.9809,-3.9824,-3.9897,-4.0029,-3.9864,-3.9866,-3.9895,-4.0207,-4.0228,-4.0254,-4.0024,-4.0028,-4.0032,-4.0201,0,-3.8998,-3.9185,-3.9208,-3.9375,-3.9467,-3.9462,-3.9555,-3.9623,-3.9659,-3.9744,-3.9785,-3.9882,-3.9842,-3.9879,-3.9951,-3.9998,-4.0093,-3.9985,-4.0114,-4.0118,-4.0096,-4.0284,-4.0306,-4.0463,-4.0223,-4.0227,-4.023,0,-3.9204,-3.9285,-3.9461,-3.9543,-3.9582,-3.9665,-3.9761,-3.984,-3.9919,-3.994,-4.0006,-4.0013,-4.0126,-4.0063,-4.022,-4.0147,-4.02,-4.0232,-4.0238,-4.0254,-4.0184,-4.0308,-4.0513,-4.0538,-4.0265,-4.0262,-4.0259,0,-3.9315,-3.9468,-3.9594,-3.9635,-3.9733,-3.9792,-3.9836,-3.991,-3.997,-4.0053,-4.0093,-4.0189,-4.0243,-4.0318,-4.0351,-4.0302,-4.0508,-4.0447,-4.0532,-4.0532,-4.0579,-4.0576,-4.0799,-4.0607,-4.0607,-4.0606,-4.0606,0,-3.9487,-3.9596,-3.9646,-3.9724,-3.9846,-3.9871,-3.9993,-4.0035,-4.0101,-4.0189,-4.0189,-4.0272,-4.0309,-4.0398,-4.0425,-4.0554,-4.0577,-4.06,-4.0606,-4.0602,-4.06,-4.064,-4.0631,-4.0613,-4.0611,-4.061,-4.0609,0,-3.9634,-3.9671,-3.9808,-3.9889,-3.9912,-3.9999,-4.007,-4.0147,-4.0181,-4.0292,-4.032,-4.0376,-4.0481,-4.052,-4.0649,-4.0667,-4.0817,-4.0813,-4.0791,-4.0793,-4.0877,-4.087,-4.1136,-4.1174,-4.0954,-4.0956,-4.0958,0,-3.9743,-3.9827,-3.9916,-3.9974,-4.002,-4.0113,-4.0174,-4.0202,-4.0266,-4.0362,-4.0428,-4.0532,-4.0618,-4.0787,-4.0841,-4.094,-4.094,-4.1027,-4.0955,-4.0949,-4.0946,-4.0942,-4.0953,-4.1041,-4.1043,-4.1045,-4.1047,0,-3.9934,-3.9948,-4.0035,-4.0129,-4.0201,-4.0277,-4.035,-4.0398,-4.0438,-4.051,-4.0617,-4.0683,-4.0814,-4.092,-4.1021,-4.1069,-4.1067,-4.1068,-4.1094,-4.1092,-4.1077,-4.109,-4.0831,-4.1063,-4.1061,-4.106,-4.1059,-4.1058,-4.0068,-4.0143,-4.0218,-4.0316,-4.0373,-4.0442,-4.0519,-4.0563,-4.0652,-4.076,-4.0771,-4.0888,-4.0966,-4.1102,-4.1154,-4.1247,-4.1224,-4.126,-4.127,-4.128,-4.1288,-4.1059,-4.1265,-4.1265,-4.1265,-4.1264,-4.1264,0,-4.0262,-4.031,-4.0399,-4.0502,-4.0579,-4.0566,-4.0647,-4.0714,-4.0815,-4.0887,-4.0971,-4.1095,-4.1197,-4.1258,-4.1362,-4.1425,-4.1426,-4.1451,-4.1449,-4.1461,-4.13,-4.127,-4.1448,-4.1448,-4.1448,-4.1448,-4.1448,-4.1448,-4.0373,-4.05,-4.0523,-4.068,-4.0728,-4.084,-4.0888,-4.0953,-4.1011,-4.1149,-4.1233,-4.1271,-4.1341,-4.1449,-4.1543,-4.1559,-4.1598,-4.1626,-4.164,-4.149,-4.1471,-4.1453,-4.1425,-4.1633,-4.1634,-4.1794,-4.1795,-4.1796]},{"header":{"parameterUnit":"m.s-1","parameterCategory":1,"la1":30.2991,"la2":30.254,"lo1":-89.0895,"lo2":-89.0444,"dy":0.0017,"dx":0.0017,"nx":28,"ny":28,"refTime":"2023-09-20T09:00:00:Z","depth":0,"parameterNumber":3,"parameterNumberName":"V-component_of_WINDS"},"data":[0,0,0,0,0,0,0,0,0,0,0,0,0,0,0,0,0,0,0,0,0,0,0,0,0,0,0,0,0,0,0,0,0,0,0,0,0,0,0,0,0,0,0,0,0,0,0,0,0,0,0,0,0,0,0,0,0,0,-1.3716,-1.3717,0,-1.38,-1.3801,-1.3802,-1.3784,-1.3782,-1.3781,-1.3779,-1.3861,-1.3864,-1.3868,0,0,0,0,0,0,0,0,0,0,0,0,0,-1.3536,-1.354,-1.3716,-1.3717,-1.3718,-1.38,-1.3801,-1.3802,-1.3784,-1.3782,-1.378,-1.3779,-1.3859,-1.3864,-1.3868,0,0,0,0,0,0,0,0,0,0,0,0,0,-1.3617,-1.3541,-1.3716,-1.3719,-1.372,-1.38,-1.3801,-1.3802,-1.3785,-1.3782,-1.378,-1.3778,-1.3858,-1.3863,-1.3869,-1.3948,0,0,-1.3885,-1.3887,0,0,0,0,0,0,0,0,-1.3612,-1.3623,-1.3718,-1.3719,-1.3721,-1.3779,-1.3767,-1.3851,-1.3785,-1.376,-1.3779,-1.3777,-1.3835,-1.3842,-1.3863,-1.3952,-1.3956,-1.3886,-1.3889,-1.3891,-1.3893,0,0,0,0,0,0,0,-1.3607,-1.362,-1.3749,-1.3719,-1.3721,-1.3715,-1.3724,-1.3783,-1.3809,-1.3762,-1.3761,-1.3771,-1.3835,-1.3858,-1.3865,-1.3957,-1.3885,-1.389,-1.3894,-1.3896,-1.4116,-1.4118,0,0,0,0,0,0,-1.36,-1.3615,-1.3746,-1.3752,-1.366,-1.372,-1.373,-1.3763,-1.3809,-1.3814,-1.3773,-1.377,-1.385,-1.3858,-1.3867,-1.3964,-1.3891,-1.3896,-1.3899,-1.4113,-1.4116,-1.4119,0,0,0,0,0,0,-1.3597,-1.3612,-1.3743,-1.3683,-1.3699,-1.3726,-1.3762,-1.3765,-1.3788,-1.3817,-1.3821,-1.3792,-1.3848,-1.386,-1.3929,-1.3967,-1.3899,-1.3904,-1.411,-1.4114,-1.4118,-1.4159,0,0,0,0,0,0,-1.3592,-1.3611,-1.3642,-1.3684,-1.3703,-1.3804,-1.3765,-1.3769,-1.3798,-1.3795,-1.3836,-1.384,-1.3847,-1.3921,-1.3934,-1.3973,-1.3908,-1.4107,-1.4112,-1.4117,-1.4154,-1.4163,-1.4172,0,0,0,0,0,-1.3585,-1.3649,-1.3644,-1.366,-1.3743,-1.3807,-1.3817,-1.3825,-1.3801,-1.3832,-1.3851,-1.3839,-1.3961,-1.3928,-1.3943,-1.3984,-1.4105,-1.4111,-1.4116,-1.415,-1.4162,-1.4171,0,0,0,0,0,0,-1.361,-1.3655,-1.365,-1.3729,-1.3765,-1.3803,-1.3843,-1.3837,-1.3879,-1.3874,-1.3881,-1.389,-1.3961,-1.3979,-1.3942,-1.4064,-1.4029,-1.4038,-1.4049,-1.4061,-1.4069,-1.4063,-1.3912,0,0,0,0,0,-1.3625,-1.3674,-1.371,-1.3777,-1.3795,-1.3816,-1.3844,-1.3848,-1.3884,-1.3898,-1.3922,-1.3956,-1.4002,-1.4032,-1.4076,-1.4156,-1.4165,-1.4192,-1.4201,-1.4208,-1.4216,-1.426,-1.4272,-1.4139,-1.4139,-1.4138,0,0,-1.3655,-1.3686,-1.3717,-1.3783,-1.3811,-1.3861,-1.3829,-1.3883,-1.392,-1.3906,-1.3973,-1.3992,-1.403,-1.4106,-1.414,-1.4123,-1.4254,-1.4215,-1.4221,-1.4225,-1.4267,-1.428,-1.4291,-1.4143,-1.4142,-1.4141,0,0,-1.3738,-1.3766,-1.3825,-1.3854,-1.3897,-1.3911,-1.3925,-1.3966,-1.3978,-1.4046,-1.4037,-1.408,-1.4159,-1.4187,-1.4212,-1.4306,-1.4296,-1.432,-1.4365,-1.4408,-1.4419,-1.4428,-1.4462,-1.4474,-1.4327,-1.4327,-1.4327,0,-1.377,-1.3847,-1.3856,-1.3912,-1.3941,-1.3933,-1.3992,-1.4019,-1.4074,-1.4093,-1.4074,-1.4174,-1.4199,-1.4281,-1.4304,-1.4324,-1.434,-1.4315,-1.4417,-1.4427,-1.4435,-1.4468,-1.448,-1.433,-1.433,-1.4329,-1.4329,0,-1.3885,-1.3938,-1.398,-1.4036,-1.407,-1.4127,-1.4144,-1.4177,-1.4178,-1.4193,-1.4262,-1.4292,-1.4343,-1.4362,-1.4362,-1.4445,-1.4433,-1.4415,-1.438,-1.4451,-1.4481,-1.4494,-1.4334,-1.4333,-1.4332,-1.4331,0,0,-1.3984,-1.4045,-1.406,-1.4086,-1.4133,-1.4173,-1.423,-1.4281,-1.431,-1.4347,-1.4395,-1.4462,-1.4447,-1.4475,-1.4478,-1.4516,-1.4589,-1.4494,-1.4495,-1.4511,-1.4682,-1.4695,-1.4709,-1.4583,-1.4585,-1.4587,-1.4678,0,-1.407,-1.4173,-1.4183,-1.4274,-1.4323,-1.4316,-1.4366,-1.4399,-1.4416,-1.4459,-1.4475,-1.4524,-1.4499,-1.4516,-1.4553,-1.4572,-1.4623,-1.4566,-1.4626,-1.4628,-1.4617,-1.4725,-1.4739,-1.4824,-1.469,-1.4692,-1.4694,0,-1.4185,-1.4229,-1.4325,-1.4367,-1.4388,-1.4432,-1.448,-1.4522,-1.456,-1.4569,-1.4601,-1.46,-1.4657,-1.462,-1.4699,-1.466,-1.4685,-1.4698,-1.4701,-1.4707,-1.4666,-1.4734,-1.4851,-1.4864,-1.4713,-1.4711,-1.471,0,-1.4248,-1.4331,-1.4399,-1.4421,-1.4471,-1.4503,-1.4525,-1.4561,-1.4591,-1.4633,-1.4652,-1.4699,-1.4725,-1.476,-1.4771,-1.4743,-1.485,-1.4814,-1.4858,-1.4858,-1.4881,-1.488,-1.5004,-1.4897,-1.4897,-1.4897,-1.4896,0,-1.4344,-1.4403,-1.4429,-1.4471,-1.4537,-1.4548,-1.4613,-1.4633,-1.4665,-1.4711,-1.4707,-1.4749,-1.4761,-1.4805,-1.4813,-1.4878,-1.4889,-1.4897,-1.4899,-1.4898,-1.4897,-1.4914,-1.4909,-1.49,-1.4899,-1.4899,-1.4898,0,-1.4425,-1.4445,-1.4519,-1.4562,-1.4574,-1.4621,-1.4656,-1.4696,-1.4712,-1.477,-1.4783,-1.4808,-1.486,-1.4875,-1.4936,-1.4942,-1.5017,-1.5013,-1.5005,-1.5005,-1.5049,-1.5045,-1.519,-1.5209,-1.5089,-1.509,-1.5091,0,-1.4485,-1.4531,-1.4579,-1.461,-1.4634,-1.4684,-1.4716,-1.4728,-1.4761,-1.4809,-1.4843,-1.4895,-1.4937,-1.5019,-1.5042,-1.5089,-1.5086,-1.5133,-1.5093,-1.5091,-1.5087,-1.5084,-1.5089,-1.5141,-1.5142,-1.5143,-1.5144,0,-1.4589,-1.4597,-1.4644,-1.4695,-1.4733,-1.4773,-1.4812,-1.4837,-1.4855,-1.4892,-1.4946,-1.4979,-1.5043,-1.5094,-1.5142,-1.5163,-1.5157,-1.5157,-1.517,-1.5169,-1.5163,-1.5167,-1.5026,-1.5153,-1.5152,-1.5152,-1.5151,-1.5151,-1.4661,-1.4702,-1.4743,-1.4796,-1.4827,-1.4863,-1.4903,-1.4926,-1.4972,-1.5026,-1.503,-1.5089,-1.5126,-1.519,-1.5214,-1.5259,-1.5245,-1.5263,-1.5268,-1.5273,-1.5277,-1.5156,-1.5268,-1.5268,-1.5267,-1.5267,-1.5267,0,-1.4765,-1.4792,-1.484,-1.4896,-1.4937,-1.493,-1.4972,-1.5007,-1.5059,-1.5095,-1.5138,-1.52,-1.525,-1.5277,-1.5326,-1.5357,-1.5356,-1.537,-1.5368,-1.5373,-1.5286,-1.5271,-1.5371,-1.5371,-1.537,-1.537,-1.537,-1.537,-1.4824,-1.4893,-1.4906,-1.4991,-1.5017,-1.5076,-1.5101,-1.5134,-1.5164,-1.5234,-1.5277,-1.5295,-1.5327,-1.5379,-1.5425,-1.5431,-1.5449,-1.5466,-1.547,-1.5389,-1.5379,-1.5368,-1.5354,-1.5469,-1.547,-1.5553,-1.5554,-1.5554]}]]